Voltar ao catálogo

COSMOS 2499 DEB

AtivoPO
NORAD 56576·DEBRIS·🇷🇺 Russia

Lançado May 23, 2014 de Plesetsk Cosmodrome

Loading…

Próximas Passagens (próximas 24 horas)

TLE

AtualizadoSource: Space-Track

Época: Sep 13, 2026, 12:58 UTC

1 56576U 14028BK  26256.54067625  .00004685  00000-0  16459-1 0  9999
2 56576  82.4102 185.8913 0199227 112.9964 249.2293 12.89656210171195

Acompanhe COSMOS 2499 DEB em tempo real com AllMySat

Download on the App Store